When you browse on this site, cookies collect data to enhance your experience and personalize the content and advertising you see.
Visit our Privacy Policy to learn more. By continuing to use the site, you agree to this use of cookies and data.
  • In Lithuania
  • List of Countries
  • For 7 days
  • Water Temperature
  • Satellite Maps
  • Weather Map
  • Weather Widgets
  • user-avatar
    Login

    Hourly Weather La Massana

    Today, 21 May, Tuesday

    Time Temperature Precipitation Wind Pressure Humidity
    00:00 +3°C° 0 mm 1 mps 607 mmHg 96%
    01:00 +3°C° 0 mm 1 mps 607 mmHg 96%
    02:00 +2°C° 0 mm 1 mps 607 mmHg 96%
    03:00 +2°C° 0 mm 1 mps 607 mmHg 96%
    04:00 +3°C° 0 mm 1 mps 607 mmHg 94%
    05:00 +3°C° 0 mm 1 mps 608 mmHg 92%
    06:00 +4°C° 0 mm 1 mps 608 mmHg 89%
    07:00 +6°C° 0 mm 1 mps 609 mmHg 79%
    08:00 +8°C° 0 mm 1 mps 610 mmHg 70%
    09:00 +10°C° 0 mm 1 mps 611 mmHg 60%
    10:00 +10°C° 0.1 mm 1 mps 611 mmHg 59%
    11:00 +11°C° 0.1 mm 1 mps 611 mmHg 58%
    12:00 +12°C° 0.1 mm 2 mps 611 mmHg 57%
    13:00 +11°C° 0.4 mm 1 mps 611 mmHg 59%
    14:00 +11°C° 0.4 mm 1 mps 610 mmHg 62%
    15:00 +10°C° 0.4 mm 1 mps 610 mmHg 65%
    16:00 +9°C° 0.6 mm 1 mps 610 mmHg 71%
    17:00 +8°C° 0.6 mm 1 mps 609 mmHg 77%
    18:00 +7°C° 0.6 mm 1 mps 609 mmHg 84%
    19:00 +7°C° 0.1 mm 1 mps 609 mmHg 86%
    20:00 +6°C° 0.1 mm 1 mps 609 mmHg 89%
    21:00 +5°C° 0.1 mm 1 mps 609 mmHg 92%
    22:00 +5°C° 0 mm 1 mps 609 mmHg 93%
    23:00 +4°C° 0 mm 1 mps 609 mmHg 93%

    Tomorrow, 22 May, Wednesday

    Time Temperature Precipitation Wind Pressure Humidity
    00:00 +3°C° 0 mm 1 mps 609 mmHg 94%
    01:00 +3°C° 0 mm 1 mps 609 mmHg 94%
    02:00 +3°C° 0 mm 1 mps 608 mmHg 93%
    03:00 +3°C° 0 mm 1 mps 608 mmHg 93%
    04:00 +4°C° 0 mm 1 mps 609 mmHg 90%
    05:00 +4°C° 0 mm 1 mps 609 mmHg 87%
    06:00 +5°C° 0 mm 1 mps 610 mmHg 85%
    07:00 +8°C° 0 mm 1 mps 611 mmHg 74%
    08:00 +10°C° 0 mm 1 mps 612 mmHg 63%
    09:00 +12°C° 0 mm 1 mps 613 mmHg 52%
    10:00 +13°C° 0 mm 1 mps 613 mmHg 49%
    11:00 +14°C° 0 mm 1 mps 614 mmHg 46%
    12:00 +15°C° 0 mm 1 mps 614 mmHg 43%
    13:00 +14°C° 0.3 mm 1 mps 613 mmHg 49%
    14:00 +13°C° 0.3 mm 1 mps 613 mmHg 55%
    15:00 +12°C° 0.3 mm 1 mps 612 mmHg 60%
    16:00 +11°C° 0.2 mm 1 mps 612 mmHg 64%
    17:00 +11°C° 0.2 mm 1 mps 611 mmHg 69%
    18:00 +10°C° 0.2 mm 1 mps 611 mmHg 73%
    19:00 +9°C° 0.1 mm 1 mps 611 mmHg 78%
    20:00 +7°C° 0.1 mm 1 mps 610 mmHg 83%
    21:00 +6°C° 0.1 mm 1 mps 610 mmHg 89%
    22:00 +5°C° 0 mm 1 mps 610 mmHg 88%
    23:00 +5°C° 0 mm 1 mps 610 mmHg 88%

    Day after tomorrow, 23 May, Thursday

    Time Temperature Precipitation Wind Pressure Humidity
    00:00 +5°C° 0 mm 1 mps 610 mmHg 88%
    01:00 +5°C° 0 mm 1 mps 609 mmHg 86%
    02:00 +4°C° 0 mm 1 mps 609 mmHg 84%
    03:00 +4°C° 0 mm 1 mps 609 mmHg 82%
    04:00 +5°C° 0 mm 1 mps 610 mmHg 79%
    05:00 +6°C° 0 mm 1 mps 610 mmHg 76%
    06:00 +8°C° 0 mm 1 mps 611 mmHg 73%
    07:00 +10°C° 0 mm 1 mps 612 mmHg 64%
    08:00 +13°C° 0 mm 1 mps 613 mmHg 56%
    09:00 +15°C° 0 mm 1 mps 614 mmHg 48%
    10:00 +16°C° 0 mm 1 mps 614 mmHg 46%
    11:00 +18°C° 0 mm 1 mps 615 mmHg 43%
    12:00 +19°C° 0 mm 1 mps 615 mmHg 40%
    13:00 +16°C° 0.3 mm 1 mps 614 mmHg 50%
    14:00 +14°C° 0.3 mm 1 mps 613 mmHg 60%
    15:00 +12°C° 0.3 mm 1 mps 611 mmHg 70%
    16:00 +11°C° 1.2 mm 1 mps 611 mmHg 76%
    17:00 +10°C° 1.2 mm 1 mps 611 mmHg 83%
    18:00 +9°C° 1.2 mm 1 mps 610 mmHg 89%
    19:00 +9°C° 1.5 mm 1 mps 610 mmHg 91%
    20:00 +8°C° 1.5 mm 1 mps 610 mmHg 92%
    21:00 +8°C° 1.5 mm 1 mps 611 mmHg 94%
    22:00 +8°C° 0.7 mm 1 mps 610 mmHg 94%
    23:00 +7°C° 0.7 mm 1 mps 610 mmHg 94%

    24 May, Friday

    Time Temperature Precipitation Wind Pressure Humidity
    00:00 +7°C° 0.7 mm 1 mps 610 mmHg 94%
    01:00 +7°C° 0.2 mm 1 mps 610 mmHg 95%
    02:00 +6°C° 0.2 mm 1 mps 609 mmHg 95%
    03:00 +6°C° 0.2 mm 1 mps 609 mmHg 96%
    04:00 +6°C° 0.4 mm 1 mps 609 mmHg 95%
    05:00 +7°C° 0.4 mm 1 mps 609 mmHg 94%
    06:00 +7°C° 0.4 mm 1 mps 609 mmHg 94%
    07:00 +7°C° 1.5 mm 1 mps 610 mmHg 94%
    08:00 +7°C° 1.5 mm 1 mps 610 mmHg 94%
    09:00 +7°C° 1.5 mm 1 mps 610 mmHg 94%
    10:00 +7°C° 1.9 mm 1 mps 610 mmHg 95%
    11:00 +7°C° 1.9 mm 1 mps 610 mmHg 95%
    12:00 +7°C° 1.9 mm 1 mps 610 mmHg 96%
    13:00 +6°C° 0.6 mm 2 mps 610 mmHg 93%
    14:00 +7°C° 0.6 mm 2 mps 610 mmHg 91%
    15:00 +7°C° 0.6 mm 2 mps 610 mmHg 89%
    16:00 +7°C° 0.3 mm 2 mps 610 mmHg 90%
    17:00 +7°C° 0.3 mm 2 mps 609 mmHg 90%
    18:00 +7°C° 0.3 mm 2 mps 609 mmHg 91%
    19:00 +6°C° 0.1 mm 2 mps 609 mmHg 92%
    20:00 +5°C° 0.1 mm 2 mps 609 mmHg 93%
    21:00 +5°C° 0.1 mm 2 mps 609 mmHg 94%
    22:00 +5°C° 0.1 mm 2 mps 609 mmHg 93%
    23:00 +5°C° 0.1 mm 2 mps 609 mmHg 93%

    25 May, Saturday

    Time Temperature Precipitation Wind Pressure Humidity
    00:00 +4°C° 0.1 mm 2 mps 609 mmHg 93%
    01:00 +4°C° 0.1 mm 2 mps 608 mmHg 93%
    02:00 +4°C° 0.1 mm 2 mps 608 mmHg 94%
    03:00 +4°C° 0.1 mm 2 mps 608 mmHg 94%
    04:00 +4°C° 0.5 mm 2 mps 608 mmHg 94%
    05:00 +5°C° 0.5 mm 2 mps 608 mmHg 94%
    06:00 +5°C° 0.5 mm 2 mps 608 mmHg 94%
    07:00 +5°C° 1.7 mm 2 mps 609 mmHg 94%
    08:00 +5°C° 1.7 mm 2 mps 609 mmHg 94%
    09:00 +5°C° 1.7 mm 2 mps 609 mmHg 94%
    10:00 +5°C° 1.3 mm 2 mps 609 mmHg 92%
    11:00 +6°C° 1.3 mm 2 mps 609 mmHg 91%
    12:00 +6°C° 1.3 mm 2 mps 609 mmHg 90%
    13:00 +7°C° 0.1 mm 2 mps 609 mmHg 86%
    14:00 +7°C° 0.1 mm 3 mps 610 mmHg 83%
    15:00 +8°C° 0.1 mm 3 mps 610 mmHg 80%
    16:00 +8°C° 0 mm 3 mps 610 mmHg 79%
    17:00 +8°C° 0 mm 3 mps 610 mmHg 78%
    18:00 +8°C° 0 mm 3 mps 610 mmHg 77%
    19:00 +7°C° 0 mm 3 mps 610 mmHg 82%
    20:00 +6°C° 0 mm 2 mps 610 mmHg 86%
    21:00 +5°C° 0 mm 2 mps 610 mmHg 91%
    22:00 +5°C° 0.3 mm 2 mps 610 mmHg 91%
    23:00 +6°C° 0.3 mm 2 mps 610 mmHg 91%

    26 May, Sunday

    Time Temperature Precipitation Wind Pressure Humidity
    00:00 +6°C° 0.3 mm 2 mps 611 mmHg 92%
    01:00 +6°C° 0.1 mm 2 mps 610 mmHg 92%
    02:00 +6°C° 0.1 mm 2 mps 610 mmHg 93%
    03:00 +6°C° 0.1 mm 2 mps 610 mmHg 93%
    04:00 +5°C° 0.1 mm 3 mps 610 mmHg 93%
    05:00 +5°C° 0.1 mm 3 mps 610 mmHg 92%
    06:00 +5°C° 0.1 mm 3 mps 611 mmHg 91%
    07:00 +7°C° 0 mm 3 mps 611 mmHg 85%
    08:00 +8°C° 0 mm 3 mps 611 mmHg 79%
    09:00 +8°C° 0 mm 4 mps 612 mmHg 73%
    10:00 +10°C° 0 mm 4 mps 612 mmHg 68%
    11:00 +11°C° 0 mm 4 mps 612 mmHg 64%
    12:00 +11°C° 0 mm 4 mps 612 mmHg 59%
    13:00 +12°C° 0 mm 4 mps 612 mmHg 59%
    14:00 +12°C° 0 mm 4 mps 612 mmHg 58%
    15:00 +12°C° 0 mm 4 mps 612 mmHg 57%
    16:00 +11°C° 0 mm 3 mps 611 mmHg 63%
    17:00 +10°C° 0 mm 3 mps 611 mmHg 68%
    18:00 +9°C° 0 mm 3 mps 610 mmHg 74%
    19:00 +8°C° 0 mm 3 mps 610 mmHg 79%
    20:00 +7°C° 0 mm 2 mps 610 mmHg 84%
    21:00 +6°C° 0 mm 2 mps 610 mmHg 88%
    22:00 +5°C° 0 mm 2 mps 610 mmHg 89%
    23:00 +4°C° 0 mm 2 mps 609 mmHg 91%
    Show more